When you browse on this site, cookies collect data to enhance your experience and personalize the content and advertising you see.
Visit our Privacy Policy to learn more. By continuing to use the site, you agree to this use of cookies and data.
  • In Spain
  • List of Countries
  • For 7 days
  • Water Temperature
  • Weather Map
  • Weather Widgets
  • user-avatar
    Login

    Hourly Weather Chervonokam'yane

    Today, 21 September, Saturday

    Time Temperature Precipitation Wind Pressure Humidity
    00:00 +8°C° 0 mm 3 mps 749 mmHg 72%
    01:00 +6°C° 0 mm 4 mps 749 mmHg 76%
    02:00 +6°C° 0 mm 4 mps 749 mmHg 79%
    03:00 +5°C° 0 mm 4 mps 749 mmHg 80%
    04:00 +5°C° 0 mm 4 mps 749 mmHg 81%
    05:00 +4°C° 0 mm 4 mps 749 mmHg 82%
    06:00 +5°C° 0 mm 4 mps 750 mmHg 76%
    07:00 +7°C° 0 mm 5 mps 750 mmHg 70%
    08:00 +8°C° 0 mm 5 mps 750 mmHg 65%
    09:00 +9°C° 0 mm 5 mps 750 mmHg 59%
    10:00 +10°C° 0 mm 5 mps 750 mmHg 53%
    11:00 +13°C° 0 mm 5 mps 750 mmHg 47%
    12:00 +13°C° 0 mm 6 mps 750 mmHg 46%
    13:00 +11°C° 0 mm 6 mps 750 mmHg 46%
    14:00 +13°C° 0 mm 6 mps 751 mmHg 45%
    15:00 +11°C° 0 mm 6 mps 751 mmHg 45%
    16:00 +12°C° 0 mm 5 mps 751 mmHg 45%
    17:00 +12°C° 0 mm 5 mps 751 mmHg 45%
    18:00 +11°C° 0 mm 4 mps 751 mmHg 48%
    19:00 +10°C° 0 mm 4 mps 751 mmHg 51%
    20:00 +9°C° 0 mm 3 mps 752 mmHg 54%
    21:00 +8°C° 0 mm 3 mps 752 mmHg 55%
    22:00 +8°C° 0 mm 3 mps 751 mmHg 56%
    23:00 +7°C° 0 mm 3 mps 751 mmHg 56%

    Tomorrow, 22 September, Sunday

    Time Temperature Precipitation Wind Pressure Humidity
    00:00 +7°C° 0 mm 4 mps 751 mmHg 52%
    01:00 +7°C° 0 mm 5 mps 750 mmHg 47%
    02:00 +8°C° 0 mm 6 mps 750 mmHg 42%
    03:00 +8°C° 0 mm 6 mps 749 mmHg 48%
    04:00 +8°C° 0 mm 6 mps 749 mmHg 54%
    05:00 +9°C° 0 mm 7 mps 748 mmHg 60%
    06:00 +9°C° 0 mm 7 mps 748 mmHg 64%
    07:00 +10°C° 0 mm 7 mps 748 mmHg 68%
    08:00 +11°C° 0 mm 8 mps 748 mmHg 72%
    09:00 +12°C° 0 mm 8 mps 748 mmHg 67%
    10:00 +13°C° 0 mm 8 mps 748 mmHg 63%
    11:00 +16°C° 0 mm 8 mps 748 mmHg 59%
    12:00 +16°C° 0 mm 8 mps 748 mmHg 57%
    13:00 +16°C° 0 mm 8 mps 747 mmHg 56%
    14:00 +17°C° 0 mm 8 mps 747 mmHg 55%
    15:00 +17°C° 0 mm 7 mps 747 mmHg 55%
    16:00 +16°C° 0 mm 6 mps 747 mmHg 55%
    17:00 +16°C° 0 mm 5 mps 746 mmHg 55%
    18:00 +15°C° 0 mm 4 mps 747 mmHg 60%
    19:00 +14°C° 0 mm 3 mps 747 mmHg 65%
    20:00 +13°C° 0 mm 3 mps 747 mmHg 70%
    21:00 +12°C° 0 mm 3 mps 747 mmHg 72%
    22:00 +12°C° 0 mm 3 mps 747 mmHg 74%
    23:00 +12°C° 0 mm 3 mps 747 mmHg 76%

    Day after tomorrow, 23 September, Monday

    Time Temperature Precipitation Wind Pressure Humidity
    00:00 +11°C° 0 mm 3 mps 747 mmHg 79%
    01:00 +11°C° 0 mm 3 mps 747 mmHg 81%
    02:00 +10°C° 0 mm 3 mps 748 mmHg 84%
    03:00 +10°C° 0 mm 3 mps 748 mmHg 86%
    04:00 +10°C° 0 mm 3 mps 748 mmHg 89%
    05:00 +9°C° 0 mm 3 mps 748 mmHg 91%
    06:00 +10°C° 0 mm 3 mps 749 mmHg 85%
    07:00 +10°C° 0 mm 3 mps 749 mmHg 79%
    08:00 +11°C° 0 mm 4 mps 749 mmHg 73%
    09:00 +12°C° 0 mm 4 mps 750 mmHg 66%
    10:00 +12°C° 0 mm 4 mps 750 mmHg 60%
    11:00 +13°C° 0 mm 3 mps 750 mmHg 53%
    12:00 +14°C° 0 mm 3 mps 750 mmHg 49%
    13:00 +14°C° 0 mm 3 mps 750 mmHg 46%
    14:00 +16°C° 0 mm 3 mps 750 mmHg 42%
    15:00 +16°C° 0 mm 2 mps 750 mmHg 41%
    16:00 +15°C° 0 mm 2 mps 750 mmHg 40%
    17:00 +15°C° 0 mm 2 mps 750 mmHg 39%
    18:00 +13°C° 0 mm 2 mps 750 mmHg 39%
    19:00 +12°C° 0 mm 2 mps 750 mmHg 39%
    20:00 +10°C° 0 mm 3 mps 751 mmHg 39%
    21:00 +10°C° 0 mm 3 mps 751 mmHg 39%
    22:00 +10°C° 0 mm 3 mps 751 mmHg 39%
    23:00 +10°C° 0 mm 3 mps 751 mmHg 38%

    24 September, Tuesday

    Time Temperature Precipitation Wind Pressure Humidity
    00:00 +10°C° 0 mm 3 mps 751 mmHg 38%
    01:00 +10°C° 0 mm 2 mps 751 mmHg 39%
    02:00 +10°C° 0 mm 2 mps 751 mmHg 39%
    03:00 +9°C° 0 mm 2 mps 751 mmHg 40%
    04:00 +9°C° 0 mm 2 mps 751 mmHg 42%
    05:00 +8°C° 0 mm 2 mps 751 mmHg 43%
    06:00 +9°C° 0 mm 2 mps 751 mmHg 43%
    07:00 +10°C° 0 mm 2 mps 751 mmHg 44%
    08:00 +12°C° 0 mm 2 mps 751 mmHg 44%
    09:00 +12°C° 0.1 mm 2 mps 751 mmHg 48%
    10:00 +13°C° 0.1 mm 2 mps 750 mmHg 52%
    11:00 +14°C° 0.1 mm 2 mps 750 mmHg 56%
    12:00 +14°C° 0 mm 2 mps 750 mmHg 57%
    13:00 +14°C° 0 mm 2 mps 750 mmHg 58%
    14:00 +15°C° 0 mm 2 mps 749 mmHg 60%
    15:00 +15°C° 0 mm 2 mps 749 mmHg 60%
    16:00 +15°C° 0 mm 2 mps 749 mmHg 60%
    17:00 +15°C° 0 mm 2 mps 748 mmHg 60%
    18:00 +15°C° 0 mm 2 mps 749 mmHg 60%
    19:00 +13°C° 0 mm 3 mps 749 mmHg 61%
    20:00 +13°C° 0 mm 3 mps 749 mmHg 61%
    21:00 +12°C° 0.1 mm 3 mps 749 mmHg 63%
    22:00 +12°C° 0.1 mm 3 mps 749 mmHg 64%
    23:00 +12°C° 0.1 mm 3 mps 749 mmHg 66%

    25 September, Wednesday

    Time Temperature Precipitation Wind Pressure Humidity
    00:00 +11°C° 0 mm 3 mps 748 mmHg 69%
    01:00 +11°C° 0 mm 3 mps 748 mmHg 72%
    02:00 +10°C° 0 mm 3 mps 748 mmHg 75%
    03:00 +10°C° 0 mm 3 mps 748 mmHg 78%
    04:00 +9°C° 0 mm 3 mps 748 mmHg 80%
    05:00 +9°C° 0 mm 3 mps 748 mmHg 82%
    06:00 +10°C° 0 mm 3 mps 748 mmHg 74%
    07:00 +12°C° 0 mm 3 mps 748 mmHg 67%
    08:00 +13°C° 0 mm 3 mps 749 mmHg 59%
    09:00 +16°C° 0 mm 3 mps 749 mmHg 54%
    10:00 +18°C° 0 mm 3 mps 749 mmHg 49%
    11:00 +20°C° 0 mm 3 mps 749 mmHg 44%
    12:00 +21°C° 0 mm 2 mps 748 mmHg 42%
    13:00 +23°C° 0 mm 2 mps 748 mmHg 39%
    14:00 +24°C° 0 mm 2 mps 748 mmHg 37%
    15:00 +23°C° 0 mm 2 mps 748 mmHg 38%
    16:00 +22°C° 0 mm 1 mps 747 mmHg 40%
    17:00 +21°C° 0 mm 1 mps 747 mmHg 41%
    18:00 +19°C° 0 mm 2 mps 747 mmHg 43%
    19:00 +18°C° 0 mm 2 mps 748 mmHg 46%
    20:00 +17°C° 0 mm 3 mps 748 mmHg 48%
    21:00 +16°C° 0 mm 3 mps 748 mmHg 50%
    22:00 +16°C° 0 mm 3 mps 748 mmHg 51%
    23:00 +15°C° 0 mm 2 mps 748 mmHg 53%

    26 September, Thursday

    Time Temperature Precipitation Wind Pressure Humidity
    00:00 +13°C° 0 mm 3 mps 747 mmHg 53%
    01:00 +13°C° 0 mm 3 mps 747 mmHg 53%
    02:00 +12°C° 0 mm 3 mps 747 mmHg 53%
    03:00 +12°C° 0 mm 3 mps 747 mmHg 52%
    04:00 +12°C° 0 mm 3 mps 747 mmHg 50%
    05:00 +12°C° 0 mm 3 mps 747 mmHg 49%
    06:00 +13°C° 0 mm 3 mps 747 mmHg 49%
    07:00 +14°C° 0 mm 4 mps 747 mmHg 49%
    08:00 +17°C° 0 mm 4 mps 747 mmHg 49%
    09:00 +18°C° 0 mm 4 mps 747 mmHg 45%
    10:00 +20°C° 0 mm 4 mps 747 mmHg 42%
    11:00 +22°C° 0 mm 4 mps 747 mmHg 38%
    12:00 +22°C° 0 mm 4 mps 747 mmHg 37%
    13:00 +23°C° 0 mm 4 mps 746 mmHg 36%
    14:00 +24°C° 0 mm 3 mps 746 mmHg 35%
    15:00 +22°C° 0 mm 3 mps 745 mmHg 40%
    16:00 +21°C° 0 mm 3 mps 745 mmHg 45%
    17:00 +20°C° 0 mm 3 mps 745 mmHg 49%
    18:00 +19°C° 0.1 mm 2 mps 745 mmHg 57%
    19:00 +18°C° 0.1 mm 2 mps 745 mmHg 65%
    20:00 +18°C° 0.1 mm 1 mps 745 mmHg 73%
    21:00 +18°C° 0.2 mm 1 mps 745 mmHg 76%
    22:00 +16°C° 0.2 mm 1 mps 744 mmHg 80%
    23:00 +15°C° 0.2 mm 0 mps 744 mmHg 83%
    Show more